Погода в Ларнаке

Кипр     34°55′03″N   33°37′52″E
темп.,
°C
ветер,
м/с
пор.,
м/с
влажн.,
%
обл.,
%
осадки,
мм/ч
давл.,
гПа
погр.,
м
20 апреля, вт
вт2000:00+21ююв2266100 0.0 100811
03:00+21зсз5756100 0.0 100889
06:00+19сз5880100 0.1 1009119
09:00+24сз9124429 0.1 1010302
12:00+24зюз56465 0.1 1011468
15:00+23сз23503 0.1 1011594
18:00+22сз911355 0.0 1012336
21:00+17сз811575 0.0 1013285
21 апреля, ср
ср2100:00+17сз585846 0.0 1014190
03:00+16зсз34584 0.0 101494
06:00+16зюз23630 0.0 1015177
09:00+18ю33585 0.0 1017369
12:00+19юв44535 0.0 1017597
15:00+19ююв43635 0.0 1016625
18:00+19ююв22605 0.0 1017461
21:00+18с23615 0.0 101740
22 апреля, чт
чт2200:00+16ссз466543 0.0 1018213
03:00+15с33709 0.0 1018108
06:00+14сз11675 0.0 101867
09:00+17зюз11590 0.0 1019375
12:00+18ю42560 0.0 1019650
15:00+19ююв65620 0.0 1018575
18:00+19ю54640 0.0 1018419
21:00+17ююз22730 0.0 1018133
23 апреля, пт
пт2300:00+17с22721 0.0 101963
03:00+16ссз33735 0.0 101871
06:00+15с33761 0.0 101878
09:00+18всв22600 0.0 1019382
12:00+21юв32525 0.0 1018543
15:00+20ююв53585 0.0 1017503
18:00+20ю22571 0.0 1016205
21:00+19ссз33610 0.0 101634
24 апреля, сб
сб2400:00+18ссз33660 0.0 101541
03:00+18ссз33640 0.0 101435
06:00+17ссз44621 0.0 101456
09:00+23с44430 0.0 1013191
12:00+27всв44300 0.0 1012557
15:00+27св44320 0.0 1010706
18:00+26всв34400 0.0 1010388
21:00+22ссз45469 0.0 101038